Time,TemperatureF,DewpointF,PressureIn,WindDirection,WindDirectionDegrees,WindSpeedMPH,WindSpeedGustMPH,Humidity,HourlyPrecipIn,Conditions,Clouds,dailyrainin,SoftwareType,DateUTC
2013-01-31 00:00:00,70.1,67.7,29.92,SSE,150,10.8,17.3,92,0.00,CLR,,0.00,WeatherDisplay:10.37,2013-01-31 05:00:00,
2013-01-31 00:01:00,70.1,67.7,29.92,South,177,7.2,17.3,92,0.00,BKN,,0.00,WeatherDisplay:10.37,2013-01-31 05:01:00,
2013-01-31 00:02:00,70.0,67.6,29.92,SSE,162,6.2,11.5,92,0.00,BKN,,0.00,WeatherDisplay:10.37,2013-01-31 05:02:00,
2013-01-31 00:07:00,70.0,67.6,29.92,SSW,212,5.4,9.2,92,0.00,BKN,,0.00,WeatherDisplay:10.37,2013-01-31 05:07:00,
2013-01-31 00:12:00,69.9,67.5,29.92,South,169,6.6,10.4,92,0.00,BKN,,0.00,WeatherDisplay:10.37,2013-01-31 05:12:00,
2013-01-31 00:17:00,69.9,67.5,29.92,South,172,8.5,15.0,92,0.00,BKN,,0.00,WeatherDisplay:10.37,2013-01-31 05:17:00,
2013-01-31 00:22:00,69.9,67.5,29.92,South,190,8.7,11.5,92,0.00,BKN,,0.00,WeatherDisplay:10.37,2013-01-31 05:22:00,
2013-01-31 00:27:00,70.0,67.6,29.92,SSE,163,6.4,12.7,92,0.00,BKN,,0.00,WeatherDisplay:10.37,2013-01-31 05:27:00,
2013-01-31 00:32:00,70.0,67.6,29.92,South,176,7.7,13.8,92,0.00,BKN,,0.00,WeatherDisplay:10.37,2013-01-31 05:32:00,
2013-01-31 00:37:00,70.0,67.6,29.92,SSW,194,5.1,13.8,92,0.00,BKN,,0.00,WeatherDisplay:10.37,2013-01-31 05:37:00,
2013-01-31 00:42:00,70.1,67.7,29.92,SSE,167,8.4,17.3,92,0.00,BKN,,0.00,WeatherDisplay:10.37,2013-01-31 05:42:00,
2013-01-31 00:47:00,70.1,67.3,29.92,SSW,211,10.2,13.0,91,0.00,BKN,,0.00,WeatherDisplay:10.37,2013-01-31 05:47:00,
2013-01-31 00:52:00,70.2,67.4,29.92,South,189,6.6,10.4,91,0.00,BKN,,0.00,WeatherDisplay:10.37,2013-01-31 05:52:00,
2013-01-31 00:57:00,70.2,67.4,29.92,South,172,7.9,13.8,91,0.00,BKN,,0.00,WeatherDisplay:10.37,2013-01-31 05:57:00,
2013-01-31 01:02:00,70.2,67.4,29.91,SSW,203,7.0,9.2,91,0.00,BKN,,0.00,WeatherDisplay:10.37,2013-01-31 06:02:00,
2013-01-31 01:07:00,69.0,64.6,29.95,NNW,348,9.8,15.0,86,0.00,BKN,,0.00,WeatherDisplay:10.37,2013-01-31 06:07:00,
2013-01-31 01:12:00,66.0,62.0,29.95,NW,307,6.9,18.4,87,0.00,BKN,,0.00,WeatherDisplay:10.37,2013-01-31 06:12:00,
2013-01-31 01:17:00,63.8,60.5,29.97,NW,323,4.1,11.5,89,0.00,BKN,,0.00,WeatherDisplay:10.37,2013-01-31 06:17:00,
2013-01-31 01:22:00,62.3,59.3,29.98,NW,304,8.8,16.1,90,0.00,BKN,,0.00,WeatherDisplay:10.37,2013-01-31 06:22:00,
2013-01-31 01:27:00,61.6,58.6,29.97,NE,41,5.7,15.0,90,0.00,BKN,,0.00,WeatherDisplay:10.37,2013-01-31 06:27:00,
2013-01-31 01:32:00,61.0,57.7,29.98,WNW,301,5.7,9.2,89,0.00,-RA,,0.00,WeatherDisplay:10.37,2013-01-31 06:32:00,
2013-01-31 01:37:00,60.7,57.7,29.98,NW,326,4.3,5.8,90,0.00,-RA,,0.00,WeatherDisplay:10.37,2013-01-31 06:37:00,
2013-01-31 01:42:00,60.7,58.4,29.97,NW,321,3.3,9.2,92,0.00,-RA,,0.00,WeatherDisplay:10.37,2013-01-31 06:42:00,
2013-01-31 01:47:00,60.8,58.5,29.97,NNW,345,6.5,9.2,92,0.00,-RA,,0.00,WeatherDisplay:10.37,2013-01-31 06:47:00,
2013-01-31 01:52:00,60.7,58.4,29.97,NW,323,7.3,14.0,92,0.00,-RA,,0.00,WeatherDisplay:10.37,2013-01-31 06:52:00,
2013-01-31 01:57:00,60.4,57.8,29.97,NNW,330,5.4,11.5,91,0.00,-RA,,0.00,WeatherDisplay:10.37,2013-01-31 06:57:00,
2013-01-31 02:00:00,60.7,40.3,30.14,North,353,6.0,21.0,47,0.00,RA,RA,0.05,WeatherDisplay:10.37,2013-01-31 07:00:00,
2013-01-31 02:02:00,60.2,57.9,29.98,NNW,340,4.5,6.9,92,0.00,-RA,,0.00,WeatherDisplay:10.37,2013-01-31 07:02:00,
2013-01-31 02:07:00,60.1,58.1,29.98,NNW,338,2.4,6.9,93,0.00,-RA,,0.01,WeatherDisplay:10.37,2013-01-31 07:07:00,
2013-01-31 02:12:00,60.1,58.1,29.97,NNE,19,4.2,8.1,93,0.01,-RA,,0.01,WeatherDisplay:10.37,2013-01-31 07:12:00,
2013-01-31 02:40:00,60.2,37.6,30.15,NNW,338,7.0,16.0,43,0.00,CLR,CLR,0.05,WeatherDisplay:10.37,2013-01-31 07:40:00,
2013-01-31 02:50:00,60.2,37.6,30.15,NNW,338,7.0,16.0,43,0.00,CLR,CLR,0.05,WeatherDisplay:10.37,2013-01-31 07:50:00,
2013-01-31 03:00:00,60.2,37.6,30.15,NNW,338,7.0,16.0,43,0.00,CLR,CLR,0.05,WeatherDisplay:10.37,2013-01-31 08:00:00,
2013-01-31 03:02:00,59.8,58.4,29.98,NNW,328,3.9,13.0,95,0.04,-RA,,0.04,WeatherDisplay:10.37,2013-01-31 08:02:00,
2013-01-31 03:07:00,59.6,57.9,29.97,North,351,4.0,4.6,94,0.04,-RA,,0.04,WeatherDisplay:10.37,2013-01-31 08:07:00,
2013-01-31 03:12:00,59.5,57.8,29.97,NNW,348,1.5,3.5,94,0.03,-RA,,0.04,WeatherDisplay:10.37,2013-01-31 08:12:00,
2013-01-31 03:17:00,59.5,57.8,29.97,NNW,338,1.0,3.5,94,0.03,-RA,,0.04,WeatherDisplay:10.37,2013-01-31 08:17:00,
2013-01-31 03:22:00,59.6,57.9,29.97,North,6,0.5,3.5,94,0.03,-RA,,0.04,WeatherDisplay:10.37,2013-01-31 08:22:00,
2013-01-31 03:27:00,59.7,58.0,29.97,NNW,345,1.0,3.0,94,0.03,-RA,,0.04,WeatherDisplay:10.37,2013-01-31 08:27:00,
2013-01-31 03:32:00,59.8,58.4,29.97,North,4,0.1,1.1,95,0.02,-RA,,0.04,WeatherDisplay:10.37,2013-01-31 08:32:00,
2013-01-31 03:37:00,60.0,58.6,29.97,NNE,18,2.3,4.0,95,0.02,-RA,,0.04,WeatherDisplay:10.37,2013-01-31 08:37:00,
2013-01-31 03:42:00,60.1,58.7,29.98,North,353,3.8,6.9,95,0.01,OVC,,0.04,WeatherDisplay:10.37,2013-01-31 08:42:00,
2013-01-31 03:47:00,60.1,58.4,29.98,NNW,335,2.3,4.6,94,0.01,OVC,,0.04,WeatherDisplay:10.37,2013-01-31 08:47:00,
2013-01-31 03:52:00,60.2,58.8,29.98,North,8,1.4,4.0,95,0.01,OVC,,0.04,WeatherDisplay:10.37,2013-01-31 08:52:00,
2013-01-31 03:57:00,60.3,58.9,29.98,NW,314,1.6,3.5,95,0.01,OVC,,0.04,WeatherDisplay:10.37,2013-01-31 08:57:00,
2013-01-31 04:02:00,60.4,59.0,29.98,North,353,2.6,4.0,95,0.00,OVC,,0.04,WeatherDisplay:10.37,2013-01-31 09:02:00,
2013-01-31 04:07:00,60.6,59.2,29.98,NNE,26,3.6,4.6,95,0.00,OVC,,0.04,WeatherDisplay:10.37,2013-01-31 09:07:00,
2013-01-31 04:12:00,60.7,59.3,29.98,WNW,301,2.2,3.5,95,0.00,OVC,,0.04,WeatherDisplay:10.37,2013-01-31 09:12:00,
2013-01-31 04:17:00,60.8,59.1,29.98,NNW,333,2.6,2.6,94,0.00,OVC,,0.04,WeatherDisplay:10.37,2013-01-31 09:17:00,
2013-01-31 04:22:00,60.9,59.2,29.99,NNW,333,3.2,4.6,94,0.00,OVC,,0.04,WeatherDisplay:10.37,2013-01-31 09:22:00,
2013-01-31 04:27:00,60.9,59.2,29.99,NNE,16,2.9,3.5,94,0.00,OVC,,0.04,WeatherDisplay:10.37,2013-01-31 09:27:00,
2013-01-31 04:32:00,60.9,59.2,29.99,North,357,2.2,4.0,94,0.00,OVC,,0.04,WeatherDisplay:10.37,2013-01-31 09:32:00,
2013-01-31 04:37:00,60.9,59.2,29.99,North,358,1.2,1.2,94,0.00,OVC,,0.04,WeatherDisplay:10.37,2013-01-31 09:37:00,
2013-01-31 04:42:00,60.9,59.2,29.98,NNW,345,0.4,2.3,94,0.00,OVC,,0.04,WeatherDisplay:10.37,2013-01-31 09:42:00,
2013-01-31 04:47:00,61.0,59.3,29.99,NNE,33,0.9,3.5,94,0.00,OVC,,0.04,WeatherDisplay:10.37,2013-01-31 09:47:00,
2013-01-31 04:52:00,61.0,59.3,29.99,North,359,0.8,2.3,94,0.00,OVC,,0.04,WeatherDisplay:10.37,2013-01-31 09:52:00,
2013-01-31 04:57:00,61.0,59.3,29.99,NNW,338,1.9,4.6,94,0.00,OVC,,0.04,WeatherDisplay:10.37,2013-01-31 09:57:00,
2013-01-31 05:02:00,61.0,59.3,29.99,NW,326,2.8,4.0,94,0.01,-RA,,0.05,WeatherDisplay:10.37,2013-01-31 10:02:00,
2013-01-31 05:07:00,61.0,59.0,29.99,NE,44,3.5,10.4,93,0.01,-RA,,0.05,WeatherDisplay:10.37,2013-01-31 10:07:00,
2013-01-31 05:12:00,61.0,59.0,29.99,North,352,3.9,6.9,93,0.01,-RA,,0.05,WeatherDisplay:10.37,2013-01-31 10:12:00,
2013-01-31 05:17:00,61.0,58.7,29.99,North,352,5.8,11.5,92,0.01,-RA,,0.05,WeatherDisplay:10.37,2013-01-31 10:17:00,
2013-01-31 05:22:00,61.1,58.8,29.99,NNE,23,2.7,4.6,92,0.01,-RA,,0.05,WeatherDisplay:10.37,2013-01-31 10:22:00,
2013-01-31 05:27:00,61.2,58.9,30.00,North,350,3.2,4.0,92,0.01,-RA,,0.05,WeatherDisplay:10.37,2013-01-31 10:27:00,
2013-01-31 05:32:00,61.2,58.9,30.00,NNW,338,2.7,3.5,92,0.01,-RA,,0.05,WeatherDisplay:10.37,2013-01-31 10:32:00,
2013-01-31 05:37:00,61.3,58.7,30.00,NNW,347,5.6,9.2,91,0.01,-RA,,0.05,WeatherDisplay:10.37,2013-01-31 10:37:00,
2013-01-31 05:42:00,61.4,58.7,30.00,NNE,15,2.2,4.6,91,0.01,-RA,,0.05,WeatherDisplay:10.37,2013-01-31 10:42:00,
2013-01-31 05:47:00,61.5,58.5,30.00,NW,311,3.9,6.9,90,0.01,-RA,,0.05,WeatherDisplay:10.37,2013-01-31 10:47:00,
2013-01-31 05:52:00,61.7,58.4,30.01,NNW,345,2.2,5.8,89,0.01,-RA,,0.05,WeatherDisplay:10.37,2013-01-31 10:52:00,
2013-01-31 05:57:00,61.8,57.9,30.01,NNE,19,3.0,8.1,87,0.01,-RA,,0.05,WeatherDisplay:10.37,2013-01-31 10:57:00,
2013-01-31 06:02:00,62.0,57.4,30.01,NNW,335,4.5,11.5,85,0.00,-RA,,0.05,WeatherDisplay:10.37,2013-01-31 11:02:00,
2013-01-31 06:07:00,62.0,57.8,30.01,NNE,31,4.4,10.4,86,0.00,-RA,,0.05,WeatherDisplay:10.37,2013-01-31 11:07:00,
2013-01-31 06:12:00,61.9,57.0,30.02,NNW,338,4.7,6.9,84,0.00,-RA,,0.05,WeatherDisplay:10.37,2013-01-31 11:12:00,
2013-01-31 06:17:00,61.9,57.0,30.02,NW,308,7.1,13.0,84,0.00,-RA,,0.05,WeatherDisplay:10.37,2013-01-31 11:17:00,
2013-01-31 06:22:00,61.9,57.0,30.02,North,9,6.3,13.8,84,0.00,-RA,,0.05,WeatherDisplay:10.37,2013-01-31 11:22:00,
2013-01-31 06:27:00,61.9,56.7,30.02,NNW,338,5.7,10.4,83,0.00,-RA,,0.05,WeatherDisplay:10.37,2013-01-31 11:27:00,
2013-01-31 06:32:00,61.9,55.7,30.03,NNW,338,6.9,13.8,80,0.00,-RA,,0.05,WeatherDisplay:10.37,2013-01-31 11:32:00,
2013-01-31 06:37:00,61.9,55.7,30.04,North,11,4.1,9.2,80,0.00,-RA,,0.05,WeatherDisplay:10.37,2013-01-31 11:37:00,
2013-01-31 06:42:00,61.9,55.0,30.04,North,6,8.6,11.5,78,0.00,-RA,,0.05,WeatherDisplay:10.37,2013-01-31 11:42:00,
2013-01-31 06:47:00,61.8,54.5,30.04,NE,34,7.4,12.7,77,0.00,-RA,,0.05,WeatherDisplay:10.37,2013-01-31 11:47:00,
2013-01-31 06:52:00,61.7,54.4,30.04,North,359,7.3,12.7,77,0.00,-RA,,0.05,WeatherDisplay:10.37,2013-01-31 11:52:00,
2013-01-31 06:57:00,61.7,54.4,30.04,North,354,6.6,15.0,77,0.00,-RA,,0.05,WeatherDisplay:10.37,2013-01-31 11:57:00,
2013-01-31 07:02:00,61.6,54.3,30.05,NNW,335,6.6,11.5,77,0.00,OVC,,0.05,WeatherDisplay:10.37,2013-01-31 12:02:00,
2013-01-31 07:07:00,61.5,54.2,30.05,North,359,9.5,20.7,77,0.00,OVC,,0.05,WeatherDisplay:10.37,2013-01-31 12:07:00,
2013-01-31 07:12:00,61.4,54.1,30.05,North,9,4.7,12.7,77,0.00,OVC,,0.05,WeatherDisplay:10.37,2013-01-31 12:12:00,
2013-01-31 07:17:00,61.1,53.5,30.05,NNW,335,5.9,13.8,76,0.00,OVC,,0.05,WeatherDisplay:10.37,2013-01-31 12:17:00,
2013-01-31 07:22:00,60.8,52.5,30.06,NNW,338,7.0,12.0,74,0.00,OVC,,0.05,WeatherDisplay:10.37,2013-01-31 12:22:00,
2013-01-31 07:27:00,60.7,51.6,30.06,NNW,338,10.0,13.8,72,0.00,OVC,,0.05,WeatherDisplay:10.37,2013-01-31 12:27:00,
2013-01-31 07:32:00,60.6,51.5,30.06,NNW,347,5.8,16.1,72,0.00,OVC,,0.05,WeatherDisplay:10.37,2013-01-31 12:32:00,
2013-01-31 07:37:00,60.5,51.8,30.07,NW,326,6.4,9.2,73,0.00,OVC,,0.05,WeatherDisplay:10.37,2013-01-31 12:37:00,
2013-01-31 07:42:00,60.4,52.1,30.07,North,352,6.7,10.0,74,0.00,OVC,,0.05,WeatherDisplay:10.37,2013-01-31 12:42:00,
2013-01-31 07:47:00,60.3,51.6,30.07,NW,320,10.1,13.8,73,0.00,OVC,,0.05,WeatherDisplay:10.37,2013-01-31 12:47:00,
2013-01-31 07:52:00,60.4,51.7,30.07,NNW,335,6.1,15.0,73,0.00,OVC,,0.05,WeatherDisplay:10.37,2013-01-31 12:52:00,
2013-01-31 07:57:00,60.4,51.3,30.08,NE,34,6.8,12.7,72,0.00,OVC,,0.05,WeatherDisplay:10.37,2013-01-31 12:57:00,
2013-01-31 08:02:00,60.5,51.0,30.08,NNW,339,5.6,5.8,71,0.00,OVC,,0.05,WeatherDisplay:10.37,2013-01-31 13:02:00,
2013-01-31 08:07:00,60.7,51.2,30.08,NNE,13,7.9,17.3,71,0.00,OVC,,0.05,WeatherDisplay:10.37,2013-01-31 13:07:00,
2013-01-31 08:12:00,60.8,51.7,30.09,NW,319,7.3,8.1,72,0.00,CLR,,0.05,WeatherDisplay:10.37,2013-01-31 13:12:00,
2013-01-31 08:17:00,60.9,52.2,30.08,NE,40,5.8,10.4,73,0.00,CLR,,0.05,WeatherDisplay:10.37,2013-01-31 13:17:00,
2013-01-31 08:22:00,61.1,53.1,30.08,NW,305,5.1,10.4,75,0.00,CLR,,0.05,WeatherDisplay:10.37,2013-01-31 13:22:00,
2013-01-31 08:27:00,61.1,53.1,30.09,ENE,58,7.5,15.0,75,0.00,CLR,,0.05,WeatherDisplay:10.37,2013-01-31 13:27:00,
2013-01-31 08:32:00,60.8,52.1,30.09,North,360,11.9,13.8,73,0.00,CLR,,0.05,WeatherDisplay:10.37,2013-01-31 13:32:00,
2013-01-31 08:37:00,60.5,51.4,30.10,North,351,9.2,9.2,72,0.00,CLR,,0.05,WeatherDisplay:10.37,2013-01-31 13:37:00,
2013-01-31 08:42:00,60.3,50.9,30.10,NNW,343,9.1,17.3,71,0.00,CLR,,0.05,WeatherDisplay:10.37,2013-01-31 13:42:00,
2013-01-31 08:47:00,60.2,50.4,30.10,NW,323,5.6,12.7,70,0.00,CLR,,0.05,WeatherDisplay:10.37,2013-01-31 13:47:00,
2013-01-31 08:52:00,60.2,50.0,30.11,North,4,8.2,11.5,69,0.00,CLR,,0.05,WeatherDisplay:10.37,2013-01-31 13:52:00,
2013-01-31 08:57:00,60.0,48.6,30.11,NNE,31,8.0,12.7,66,0.00,CLR,,0.05,WeatherDisplay:10.37,2013-01-31 13:57:00,
2013-01-31 09:03:00,60.1,47.5,30.11,NNE,27,9.8,11.5,63,0.00,FEW,,0.05,WeatherDisplay:10.37,2013-01-31 14:03:00,
2013-01-31 09:08:00,59.9,46.4,30.11,NNW,340,7.6,11.5,61,0.00,FEW,,0.05,WeatherDisplay:10.37,2013-01-31 14:08:00,
2013-01-31 09:13:00,60.0,46.1,30.12,NNE,19,7.8,11.5,60,0.00,FEW,,0.05,WeatherDisplay:10.37,2013-01-31 14:13:00,
2013-01-31 09:18:00,60.0,45.6,30.12,NE,46,10.5,11.5,59,0.00,FEW,,0.05,WeatherDisplay:10.37,2013-01-31 14:18:00,
2013-01-31 09:23:00,60.0,46.5,30.12,NW,323,11.2,13.8,61,0.00,FEW,,0.05,WeatherDisplay:10.37,2013-01-31 14:23:00,
2013-01-31 09:28:00,60.2,47.6,30.12,North,349,6.3,8.1,63,0.00,FEW,,0.05,WeatherDisplay:10.37,2013-01-31 14:28:00,
2013-01-31 09:33:00,60.3,48.1,30.13,NNW,341,5.7,11.5,64,0.00,FEW,,0.05,WeatherDisplay:10.37,2013-01-31 14:33:00,
2013-01-31 09:38:00,60.5,48.7,30.13,North,356,5.8,14.0,65,0.00,FEW,,0.05,WeatherDisplay:10.37,2013-01-31 14:38:00,
2013-01-31 09:43:00,60.5,48.3,30.13,NW,315,7.1,9.2,64,0.00,FEW,,0.05,WeatherDisplay:10.37,2013-01-31 14:43:00,
2013-01-31 09:48:00,60.5,47.0,30.13,NNW,333,9.4,11.5,61,0.00,FEW,,0.05,WeatherDisplay:10.37,2013-01-31 14:48:00,
2013-01-31 09:53:00,60.6,46.6,30.13,NNW,345,6.7,13.0,60,0.00,FEW,,0.05,WeatherDisplay:10.37,2013-01-31 14:53:00,
2013-01-31 09:58:00,60.5,44.2,30.13,North,350,10.6,15.0,55,0.00,FEW,,0.05,WeatherDisplay:10.37,2013-01-31 14:58:00,
2013-01-31 10:03:00,60.5,45.2,30.14,NNW,340,4.6,9.2,57,0.00,CLR,,0.05,WeatherDisplay:10.37,2013-01-31 15:03:00,
2013-01-31 10:08:00,60.9,46.9,30.14,NNE,27,7.2,12.7,60,0.00,CLR,,0.05,WeatherDisplay:10.37,2013-01-31 15:08:00,
2013-01-31 10:13:00,60.9,46.5,30.14,North,360,7.7,11.5,59,0.00,CLR,,0.05,WeatherDisplay:10.37,2013-01-31 15:13:00,
2013-01-31 10:18:00,60.9,47.8,30.14,NE,50,8.4,13.8,62,0.00,CLR,,0.05,WeatherDisplay:10.37,2013-01-31 15:18:00,
2013-01-31 10:23:00,60.7,46.7,30.14,North,351,6.5,10.4,60,0.00,CLR,,0.05,WeatherDisplay:10.37,2013-01-31 15:23:00,
2013-01-31 10:28:00,60.7,46.3,30.14,NNW,348,3.6,6.9,59,0.00,CLR,,0.05,WeatherDisplay:10.37,2013-01-31 15:28:00,
2013-01-31 10:33:00,61.0,45.7,30.14,NNW,332,6.6,12.7,57,0.00,CLR,,0.05,WeatherDisplay:10.37,2013-01-31 15:33:00,
2013-01-31 10:38:00,61.4,46.5,30.14,NNW,333,3.1,5.8,58,0.00,CLR,,0.05,WeatherDisplay:10.37,2013-01-31 15:38:00,
2013-01-31 10:43:00,61.2,45.8,30.14,NNE,23,4.1,11.0,57,0.00,CLR,,0.05,WeatherDisplay:10.37,2013-01-31 15:43:00,
2013-01-31 10:48:00,61.3,45.0,30.15,NNW,338,7.4,12.7,55,0.00,CLR,,0.05,WeatherDisplay:10.37,2013-01-31 15:48:00,
2013-01-31 10:53:00,60.8,44.0,30.15,NNW,328,9.8,13.8,54,0.00,CLR,,0.05,WeatherDisplay:10.37,2013-01-31 15:53:00,
2013-01-31 10:58:00,61.0,46.1,30.15,NNE,33,5.7,9.2,58,0.00,CLR,,0.05,WeatherDisplay:10.37,2013-01-31 15:58:00,
2013-01-31 11:03:00,61.2,47.2,30.14,WNW,294,7.5,11.5,60,0.00,CLR,,0.05,WeatherDisplay:10.37,2013-01-31 16:03:00,
2013-01-31 11:08:00,60.9,46.9,30.14,NNE,15,4.4,6.9,60,0.00,CLR,,0.05,WeatherDisplay:10.37,2013-01-31 16:08:00,
2013-01-31 11:13:00,61.1,46.7,30.15,NW,309,5.7,10.4,59,0.00,CLR,,0.05,WeatherDisplay:10.37,2013-01-31 16:13:00,
2013-01-31 11:18:00,61.0,44.2,30.15,North,11,10.2,16.1,54,0.00,CLR,,0.05,WeatherDisplay:10.37,2013-01-31 16:18:00,
2013-01-31 11:23:00,60.7,42.5,30.15,NNW,333,8.5,12.7,51,0.00,CLR,,0.05,WeatherDisplay:10.37,2013-01-31 16:23:00,
2013-01-31 11:28:00,60.8,42.5,30.15,NNW,342,6.5,11.5,51,0.00,CLR,,0.05,WeatherDisplay:10.37,2013-01-31 16:28:00,
2013-01-31 11:33:00,60.8,44.5,30.15,NE,40,5.0,8.0,55,0.00,CLR,,0.05,WeatherDisplay:10.37,2013-01-31 16:33:00,
2013-01-31 11:38:00,60.9,45.1,30.15,NNE,32,3.3,6.9,56,0.00,CLR,,0.05,WeatherDisplay:10.37,2013-01-31 16:38:00,
2013-01-31 11:43:00,61.6,46.7,30.15,NE,41,3.8,8.1,58,0.00,CLR,,0.05,WeatherDisplay:10.37,2013-01-31 16:43:00,
2013-01-31 11:48:00,61.4,46.5,30.14,NNW,342,9.2,12.7,58,0.00,CLR,,0.05,WeatherDisplay:10.37,2013-01-31 16:48:00,
2013-01-31 11:53:00,61.7,47.7,30.14,NNW,343,2.9,4.0,60,0.00,CLR,,0.05,WeatherDisplay:10.37,2013-01-31 16:53:00,
2013-01-31 11:58:00,61.4,46.5,30.14,NNE,33,6.2,11.5,58,0.00,CLR,,0.05,WeatherDisplay:10.37,2013-01-31 16:58:00,
2013-01-31 12:03:00,61.1,46.2,30.14,North,352,10.1,16.1,58,0.00,CLR,,0.05,WeatherDisplay:10.37,2013-01-31 17:03:00,
2013-01-31 12:08:00,61.2,45.4,30.14,NNE,18,9.3,11.5,56,0.00,CLR,,0.05,WeatherDisplay:10.37,2013-01-31 17:08:00,
2013-01-31 12:13:00,61.3,45.5,30.14,NE,36,8.1,14.0,56,0.00,CLR,,0.05,WeatherDisplay:10.37,2013-01-31 17:13:00,
2013-01-31 12:18:00,61.3,45.0,30.14,NE,43,8.0,11.5,55,0.00,CLR,,0.05,WeatherDisplay:10.37,2013-01-31 17:18:00,
2013-01-31 12:23:00,61.3,45.5,30.14,North,8,11.0,15.0,56,0.00,CLR,,0.05,WeatherDisplay:10.37,2013-01-31 17:23:00,
2013-01-31 12:28:00,61.1,45.3,30.14,NNE,26,6.9,10.4,56,0.00,CLR,,0.05,WeatherDisplay:10.37,2013-01-31 17:28:00,
2013-01-31 12:33:00,60.5,44.7,30.14,NNE,21,9.0,12.7,56,0.00,CLR,,0.05,WeatherDisplay:10.37,2013-01-31 17:33:00,
2013-01-31 12:38:00,60.7,44.4,30.14,NNW,346,8.1,13.8,55,0.00,CLR,,0.05,WeatherDisplay:10.37,2013-01-31 17:38:00,
2013-01-31 12:43:00,60.7,43.9,30.14,NNE,30,6.8,11.5,54,0.00,CLR,,0.05,WeatherDisplay:10.37,2013-01-31 17:43:00,
2013-01-31 12:48:00,61.1,43.3,30.15,NNW,345,7.7,11.5,52,0.00,CLR,,0.05,WeatherDisplay:10.37,2013-01-31 17:48:00,
2013-01-31 12:53:00,60.9,41.6,30.15,ENE,67,10.2,12.7,49,0.00,CLR,,0.05,WeatherDisplay:10.37,2013-01-31 17:53:00,
2013-01-31 12:58:00,61.2,40.2,30.14,NNW,332,7.4,11.5,46,0.00,CLR,,0.05,WeatherDisplay:10.37,2013-01-31 17:58:00,
2013-01-31 13:03:00,61.4,40.4,30.14,NNW,347,5.7,10.0,46,0.00,CLR,,0.05,WeatherDisplay:10.37,2013-01-31 18:03:00,
2013-01-31 13:08:00,61.4,37.5,30.14,North,350,9.1,12.7,41,0.00,CLR,,0.05,WeatherDisplay:10.37,2013-01-31 18:08:00,
2013-01-31 13:13:00,61.1,37.8,30.14,NNE,19,6.1,15.0,42,0.00,CLR,,0.05,WeatherDisplay:10.37,2013-01-31 18:13:00,
2013-01-31 13:18:00,61.1,36.6,30.14,NNE,26,10.0,13.8,40,0.00,CLR,,0.05,WeatherDisplay:10.37,2013-01-31 18:18:00,
2013-01-31 13:23:00,60.4,35.9,30.14,North,357,8.5,11.5,40,0.00,CLR,,0.05,WeatherDisplay:10.37,2013-01-31 18:23:00,
2013-01-31 13:28:00,60.9,39.4,30.14,North,11,6.3,15.0,45,0.00,CLR,,0.05,WeatherDisplay:10.37,2013-01-31 18:28:00,
2013-01-31 13:33:00,61.0,41.2,30.14,WNW,284,4.8,9.2,48,0.00,CLR,,0.05,WeatherDisplay:10.37,2013-01-31 18:33:00,
2013-01-31 13:38:00,60.7,39.8,30.14,NNW,333,8.5,11.5,46,0.00,CLR,,0.05,WeatherDisplay:10.37,2013-01-31 18:38:00,
2013-01-31 13:43:00,60.8,39.9,30.14,NNE,20,7.2,11.5,46,0.00,CLR,,0.05,WeatherDisplay:10.37,2013-01-31 18:43:00,
2013-01-31 15:00:00,60.0,39.1,30.14,NE,48,11.8,16.1,46,0.00,CLR,,0.05,WeatherDisplay:10.37,2013-01-31 20:00:00,
2013-01-31 15:05:00,59.9,39.1,30.14,NW,321,6.3,11.5,46,0.00,CLR,,0.05,WeatherDisplay:10.37,2013-01-31 20:05:00,
2013-01-31 15:10:00,59.9,39.1,30.14,NNE,33,6.4,11.5,46,0.00,CLR,,0.05,WeatherDisplay:10.37,2013-01-31 20:10:00,
2013-01-31 15:15:00,60.0,39.1,30.15,NW,321,5.2,9.2,46,0.00,CLR,,0.05,WeatherDisplay:10.37,2013-01-31 20:15:00,
2013-01-31 15:20:00,59.9,39.1,30.15,NNW,330,4.7,10.0,46,0.00,CLR,,0.05,WeatherDisplay:10.37,2013-01-31 20:20:00,
2013-01-31 15:25:00,59.9,39.6,30.15,NNW,330,2.9,6.9,47,0.00,CLR,,0.05,WeatherDisplay:10.37,2013-01-31 20:25:00,
2013-01-31 15:30:00,59.6,39.9,30.15,NNE,18,6.8,8.0,48,0.00,CLR,,0.05,WeatherDisplay:10.37,2013-01-31 20:30:00,
2013-01-31 15:36:00,59.5,40.3,30.15,NNW,328,2.0,3.5,49,0.00,CLR,,0.05,WeatherDisplay:10.37,2013-01-31 20:36:00,
2013-01-31 15:41:00,60.0,39.7,30.15,North,350,8.1,9.2,47,0.00,CLR,,0.05,WeatherDisplay:10.37,2013-01-31 20:41:00,
2013-01-31 15:46:00,59.5,38.7,30.15,NW,312,5.9,8.0,46,0.00,CLR,,0.05,WeatherDisplay:10.37,2013-01-31 20:46:00,
2013-01-31 15:51:00,59.7,38.3,30.15,ENE,58,7.1,12.7,45,0.00,CLR,,0.05,WeatherDisplay:10.37,2013-01-31 20:51:00,
2013-01-31 15:56:00,59.6,37.6,30.15,North,353,4.6,5.0,44,0.00,CLR,,0.05,WeatherDisplay:10.37,2013-01-31 20:56:00,
2013-01-31 16:01:00,59.7,38.3,30.15,NW,320,7.6,10.4,45,0.00,CLR,,0.05,WeatherDisplay:10.37,2013-01-31 21:01:00,
2013-01-31 16:06:00,59.5,38.1,30.15,North,8,8.3,11.0,45,0.00,CLR,,0.05,WeatherDisplay:10.37,2013-01-31 21:06:00,
2013-01-31 16:11:00,59.3,38.5,30.15,NNW,345,4.6,11.5,46,0.00,CLR,,0.05,WeatherDisplay:10.37,2013-01-31 21:11:00,
2013-01-31 16:16:00,59.4,38.6,30.15,WNW,298,5.3,12.7,46,0.00,CLR,,0.05,WeatherDisplay:10.37,2013-01-31 21:16:00,
2013-01-31 16:21:00,59.3,38.5,30.15,NNE,30,5.9,15.0,46,0.00,CLR,,0.05,WeatherDisplay:10.37,2013-01-31 21:21:00,
2013-01-31 16:26:00,59.0,38.8,30.15,North,350,4.5,12.0,47,0.00,CLR,,0.05,WeatherDisplay:10.37,2013-01-31 21:26:00,
2013-01-31 16:31:00,58.8,38.1,30.15,West,281,5.5,10.4,46,0.00,CLR,,0.05,WeatherDisplay:10.37,2013-01-31 21:31:00,
2013-01-31 16:36:00,59.0,38.2,30.15,ENE,65,3.7,6.9,46,0.00,CLR,,0.05,WeatherDisplay:10.37,2013-01-31 21:36:00,
2013-01-31 16:41:00,59.0,38.2,30.15,NNW,346,6.5,12.7,46,0.00,CLR,,0.05,WeatherDisplay:10.37,2013-01-31 21:41:00,
2013-01-31 16:46:00,58.5,38.3,30.16,NNE,21,2.7,8.1,47,0.00,CLR,,0.05,WeatherDisplay:10.37,2013-01-31 21:46:00,
2013-01-31 16:51:00,58.6,37.9,30.15,North,354,8.6,15.0,46,0.00,CLR,,0.05,WeatherDisplay:10.37,2013-01-31 21:51:00,
2013-01-31 16:56:00,58.3,37.6,30.15,NNW,328,5.9,10.4,46,0.00,CLR,,0.05,WeatherDisplay:10.37,2013-01-31 21:56:00,
2013-01-31 17:01:00,58.2,37.5,30.15,NNW,328,4.1,6.9,46,0.00,CLR,,0.05,WeatherDisplay:10.37,2013-01-31 22:01:00,
2013-01-31 17:06:00,58.0,37.3,30.15,NNW,330,3.2,6.0,46,0.00,CLR,,0.05,WeatherDisplay:10.37,2013-01-31 22:06:00,
2013-01-31 17:11:00,57.8,36.0,30.15,North,352,6.7,11.5,44,0.00,CLR,,0.05,WeatherDisplay:10.37,2013-01-31 22:11:00,
2013-01-31 17:16:00,57.6,37.0,30.16,NW,323,3.7,11.5,46,0.00,CLR,,0.05,WeatherDisplay:10.37,2013-01-31 22:16:00,
2013-01-31 17:21:00,57.4,37.9,30.16,NW,321,2.6,6.9,48,0.00,CLR,,0.05,WeatherDisplay:10.37,2013-01-31 22:21:00,
2013-01-31 17:26:00,57.2,35.5,30.16,North,349,5.1,8.1,44,0.00,CLR,,0.05,WeatherDisplay:10.37,2013-01-31 22:26:00,
2013-01-31 17:31:00,57.0,36.4,30.16,North,6,7.5,11.0,46,0.00,CLR,,0.05,WeatherDisplay:10.37,2013-01-31 22:31:00,
2013-01-31 17:36:00,56.9,36.9,30.16,NNW,338,4.9,9.2,47,0.00,CLR,,0.05,WeatherDisplay:10.37,2013-01-31 22:36:00,
2013-01-31 17:41:00,56.7,36.1,30.16,NNE,21,4.8,9.2,46,0.00,CLR,,0.05,WeatherDisplay:10.37,2013-01-31 22:41:00,
2013-01-31 17:46:00,56.6,35.5,30.16,NNW,346,4.6,6.9,45,0.00,CLR,,0.05,WeatherDisplay:10.37,2013-01-31 22:46:00,
2013-01-31 17:51:00,56.4,33.6,30.16,NNW,335,6.2,9.2,42,0.00,CLR,,0.05,WeatherDisplay:10.37,2013-01-31 22:51:00,
2013-01-31 17:56:00,56.2,33.4,30.16,NNW,340,2.7,6.9,42,0.00,CLR,,0.05,WeatherDisplay:10.37,2013-01-31 22:56:00,
2013-01-31 18:01:00,55.9,34.3,30.16,NNW,333,4.0,5.8,44,0.00,CLR,,0.05,WeatherDisplay:10.37,2013-01-31 23:01:00,
2013-01-31 18:06:00,55.8,34.8,30.16,NW,323,4.8,10.4,45,0.00,CLR,,0.05,WeatherDisplay:10.37,2013-01-31 23:06:00,
2013-01-31 18:11:00,55.6,34.6,30.16,NW,326,6.0,8.1,45,0.00,CLR,,0.05,WeatherDisplay:10.37,2013-01-31 23:11:00,
2013-01-31 18:16:00,55.4,34.4,30.16,NNW,342,4.7,11.5,45,0.00,CLR,,0.05,WeatherDisplay:10.37,2013-01-31 23:16:00,
2013-01-31 18:21:00,55.2,34.2,30.16,NNE,13,5.5,11.5,45,0.00,CLR,,0.05,WeatherDisplay:10.37,2013-01-31 23:21:00,
2013-01-31 18:26:00,55.1,34.1,30.16,NNW,345,4.4,6.9,45,0.00,CLR,,0.05,WeatherDisplay:10.37,2013-01-31 23:26:00,
2013-01-31 18:31:00,55.0,34.6,30.16,NNW,348,2.7,10.4,46,0.00,CLR,,0.05,WeatherDisplay:10.37,2013-01-31 23:31:00,
2013-01-31 18:36:00,54.9,34.5,30.16,NNW,347,4.7,6.0,46,0.00,CLR,,0.05,WeatherDisplay:10.37,2013-01-31 23:36:00,
2013-01-31 18:41:00,54.9,34.5,30.16,NE,37,4.2,8.1,46,0.00,CLR,,0.05,WeatherDisplay:10.37,2013-01-31 23:41:00,
2013-01-31 18:46:00,54.9,33.9,30.16,North,349,4.2,11.5,45,0.00,CLR,,0.05,WeatherDisplay:10.37,2013-01-31 23:46:00,
2013-01-31 18:51:00,54.8,33.3,30.17,NNW,338,4.2,10.4,44,0.00,CLR,,0.05,WeatherDisplay:10.37,2013-01-31 23:51:00,
2013-01-31 18:56:00,54.8,34.4,30.17,NNW,335,4.7,6.9,46,0.00,CLR,,0.05,WeatherDisplay:10.37,2013-01-31 23:56:00,
2013-01-31 19:01:00,54.7,34.3,30.17,NW,321,4.9,6.9,46,0.00,CLR,,0.05,WeatherDisplay:10.37,2013-02-01 00:01:00,
2013-01-31 19:06:00,54.6,34.8,30.17,NW,304,3.3,8.1,47,0.00,CLR,,0.05,WeatherDisplay:10.37,2013-02-01 00:06:00,
2013-01-31 19:11:00,54.5,34.7,30.17,North,353,3.2,4.0,47,0.00,CLR,,0.05,WeatherDisplay:10.37,2013-02-01 00:11:00,
2013-01-31 19:16:00,54.4,34.0,30.18,North,358,6.6,9.2,46,0.00,CLR,,0.05,WeatherDisplay:10.37,2013-02-01 00:16:00,
2013-01-31 19:21:00,54.4,34.0,30.18,NNE,18,6.0,10.4,46,0.00,CLR,,0.05,WeatherDisplay:10.37,2013-02-01 00:21:00,
2013-01-31 19:26:00,54.3,35.0,30.18,NNE,29,2.7,6.9,48,0.00,CLR,,0.05,WeatherDisplay:10.37,2013-02-01 00:26:00,
2013-01-31 19:31:00,54.1,35.3,30.18,NNW,331,6.8,10.4,49,0.00,CLR,,0.05,WeatherDisplay:10.37,2013-02-01 00:31:00,
2013-01-31 19:36:00,54.1,35.9,30.18,NNW,343,4.6,8.0,50,0.00,CLR,,0.05,WeatherDisplay:10.37,2013-02-01 00:36:00,
2013-01-31 19:41:00,54.0,35.8,30.18,NNW,338,4.8,6.9,50,0.00,CLR,,0.05,WeatherDisplay:10.37,2013-02-01 00:41:00,
2013-01-31 19:46:00,54.0,35.8,30.19,NNW,338,3.2,6.9,50,0.00,CLR,,0.05,WeatherDisplay:10.37,2013-02-01 00:46:00,
2013-01-31 19:51:00,54.0,35.8,30.19,NNW,335,3.8,5.8,50,0.00,CLR,,0.05,WeatherDisplay:10.37,2013-02-01 00:51:00,
2013-01-31 19:56:00,53.9,36.2,30.19,NNW,328,6.0,8.1,51,0.00,CLR,,0.05,WeatherDisplay:10.37,2013-02-01 00:56:00,
2013-01-31 20:01:00,53.8,36.6,30.20,NNW,343,4.8,6.9,52,0.00,CLR,,0.05,WeatherDisplay:10.37,2013-02-01 01:01:00,
2013-01-31 20:06:00,54.0,37.2,30.20,North,357,4.5,10.4,53,0.00,CLR,,0.05,WeatherDisplay:10.37,2013-02-01 01:06:00,
2013-01-31 20:11:00,53.9,37.1,30.20,North,359,5.0,10.4,53,0.00,CLR,,0.05,WeatherDisplay:10.37,2013-02-01 01:11:00,
2013-01-31 20:16:00,53.9,37.6,30.20,NNW,345,3.1,5.8,54,0.00,CLR,,0.05,WeatherDisplay:10.37,2013-02-01 01:16:00,
2013-01-31 20:21:00,53.7,37.9,30.20,NNW,328,4.1,6.9,55,0.00,CLR,,0.05,WeatherDisplay:10.37,2013-02-01 01:21:00,
2013-01-31 20:26:00,53.7,38.4,30.20,NNW,342,4.9,5.8,56,0.00,CLR,,0.05,WeatherDisplay:10.37,2013-02-01 01:26:00,
2013-01-31 20:31:00,53.6,39.2,30.20,NNW,340,3.5,5.0,58,0.00,CLR,,0.05,WeatherDisplay:10.37,2013-02-01 01:31:00,
2013-01-31 20:36:00,53.7,39.3,30.20,NNW,345,3.7,8.1,58,0.00,CLR,,0.05,WeatherDisplay:10.37,2013-02-01 01:36:00,
2013-01-31 20:41:00,53.7,39.3,30.20,North,349,4.5,8.1,58,0.00,CLR,,0.05,WeatherDisplay:10.37,2013-02-01 01:41:00,
2013-01-31 20:46:00,53.6,39.2,30.20,NW,321,6.4,8.1,58,0.00,CLR,,0.05,WeatherDisplay:10.37,2013-02-01 01:46:00,
2013-01-31 20:51:00,53.6,39.6,30.20,North,5,6.0,6.0,59,0.00,CLR,,0.05,WeatherDisplay:10.37,2013-02-01 01:51:00,
2013-01-31 20:56:00,53.7,39.7,30.20,NNW,348,6.0,11.5,59,0.00,CLR,,0.05,WeatherDisplay:10.37,2013-02-01 01:56:00,
2013-01-31 21:01:00,53.6,40.0,30.20,NNW,333,4.2,5.8,60,0.00,CLR,,0.05,WeatherDisplay:10.37,2013-02-01 02:01:00,
2013-01-31 21:06:00,53.5,39.9,30.20,NNW,330,6.3,8.1,60,0.00,CLR,,0.05,WeatherDisplay:10.37,2013-02-01 02:06:00,
2013-01-31 21:11:00,53.6,40.0,30.20,NNE,18,4.7,10.4,60,0.00,CLR,,0.05,WeatherDisplay:10.37,2013-02-01 02:11:00,
2013-01-31 21:16:00,53.6,40.5,30.21,NNE,21,5.4,8.0,61,0.00,CLR,,0.05,WeatherDisplay:10.37,2013-02-01 02:16:00,
2013-01-31 21:21:00,53.7,41.0,30.21,NW,314,4.1,4.6,62,0.00,CLR,,0.05,WeatherDisplay:10.37,2013-02-01 02:21:00,
2013-01-31 21:26:00,53.6,40.9,30.21,NW,319,2.3,4.6,62,0.00,CLR,,0.05,WeatherDisplay:10.37,2013-02-01 02:26:00,
2013-01-31 21:31:00,53.6,40.5,30.21,NE,34,4.4,6.0,61,0.00,CLR,,0.05,WeatherDisplay:10.37,2013-02-01 02:31:00,
2013-01-31 21:36:00,53.6,40.9,30.21,North,352,4.7,8.1,62,0.00,CLR,,0.05,WeatherDisplay:10.37,2013-02-01 02:36:00,
2013-01-31 21:41:00,53.5,40.8,30.21,NNW,345,4.4,9.2,62,0.00,CLR,,0.05,WeatherDisplay:10.37,2013-02-01 02:41:00,
2013-01-31 21:46:00,53.5,40.8,30.21,NNW,337,3.1,4.0,62,0.00,CLR,,0.05,WeatherDisplay:10.37,2013-02-01 02:46:00,
2013-01-31 21:51:00,53.4,41.1,30.21,North,354,4.6,5.8,63,0.00,CLR,,0.05,WeatherDisplay:10.37,2013-02-01 02:51:00,
2013-01-31 21:56:00,53.3,41.0,30.21,NNW,332,4.1,8.1,63,0.00,CLR,,0.05,WeatherDisplay:10.37,2013-02-01 02:56:00,
2013-01-31 22:01:00,53.3,41.4,30.21,NNW,339,2.4,6.9,64,0.00,CLR,,0.05,WeatherDisplay:10.37,2013-02-01 03:01:00,
2013-01-31 22:06:00,53.4,41.1,30.22,NNE,12,5.4,9.2,63,0.00,CLR,,0.05,WeatherDisplay:10.37,2013-02-01 03:06:00,
2013-01-31 22:11:00,53.4,41.1,30.22,NNW,339,4.2,9.0,63,0.00,CLR,,0.05,WeatherDisplay:10.37,2013-02-01 03:11:00,
2013-01-31 22:16:00,53.5,40.8,30.21,North,6,6.0,11.5,62,0.00,CLR,,0.05,WeatherDisplay:10.37,2013-02-01 03:16:00,
2013-01-31 22:21:00,53.5,40.8,30.21,North,350,3.1,4.6,62,0.00,CLR,,0.05,WeatherDisplay:10.37,2013-02-01 03:21:00,
2013-01-31 22:26:00,53.4,41.1,30.21,North,5,1.4,2.3,63,0.00,CLR,,0.05,WeatherDisplay:10.37,2013-02-01 03:26:00,
2013-01-31 22:31:00,53.3,41.4,30.22,ENE,65,2.3,4.0,64,0.00,CLR,,0.05,WeatherDisplay:10.37,2013-02-01 03:31:00,
2013-01-31 22:36:00,53.4,41.5,30.22,NNW,345,1.8,4.6,64,0.00,CLR,,0.05,WeatherDisplay:10.37,2013-02-01 03:36:00,
2013-01-31 22:41:00,53.2,41.3,30.22,NNE,18,3.4,4.6,64,0.00,CLR,,0.05,WeatherDisplay:10.37,2013-02-01 03:41:00,
2013-01-31 22:46:00,53.2,41.3,30.22,NNE,26,4.3,5.8,64,0.00,CLR,,0.05,WeatherDisplay:10.37,2013-02-01 03:46:00,
2013-01-31 22:51:00,53.3,41.0,30.22,NNW,336,5.9,9.2,63,0.00,CLR,,0.05,WeatherDisplay:10.37,2013-02-01 03:51:00,
2013-01-31 22:56:00,53.5,41.2,30.22,NNW,341,5.1,10.4,63,0.00,CLR,,0.05,WeatherDisplay:10.37,2013-02-01 03:56:00,
2013-01-31 23:01:00,53.4,41.1,30.22,WNW,297,5.3,8.1,63,0.00,CLR,,0.05,WeatherDisplay:10.37,2013-02-01 04:01:00,
2013-01-31 23:06:00,53.5,41.2,30.23,NNE,19,7.2,11.0,63,0.00,CLR,,0.05,WeatherDisplay:10.37,2013-02-01 04:06:00,
2013-01-31 23:11:00,53.6,41.3,30.23,NNW,348,5.1,6.9,63,0.00,CLR,,0.05,WeatherDisplay:10.37,2013-02-01 04:11:00,
2013-01-31 23:16:00,53.6,41.3,30.23,NW,308,7.1,9.2,63,0.00,CLR,,0.05,WeatherDisplay:10.37,2013-02-01 04:16:00,
2013-01-31 23:21:00,53.8,41.5,30.23,NE,47,4.1,6.9,63,0.00,CLR,,0.05,WeatherDisplay:10.37,2013-02-01 04:21:00,
2013-01-31 23:26:00,53.7,41.4,30.23,NNW,338,3.1,8.1,63,0.00,CLR,,0.05,WeatherDisplay:10.37,2013-02-01 04:26:00,
2013-01-31 23:31:00,53.6,41.7,30.23,NNW,328,4.0,5.8,64,0.00,CLR,,0.05,WeatherDisplay:10.37,2013-02-01 04:31:00,
2013-01-31 23:36:00,53.7,41.8,30.23,North,350,7.1,10.4,64,0.00,CLR,,0.05,WeatherDisplay:10.37,2013-02-01 04:36:00,
2013-01-31 23:41:00,53.9,42.0,30.23,NNW,341,5.3,11.5,64,0.00,CLR,,0.05,WeatherDisplay:10.37,2013-02-01 04:41:00,
2013-01-31 23:46:00,53.8,42.3,30.23,North,355,4.4,6.9,65,0.00,CLR,,0.05,WeatherDisplay:10.37,2013-02-01 04:46:00,
2013-01-31 23:51:00,53.9,42.4,30.23,NNW,338,6.7,8.1,65,0.00,CLR,,0.05,WeatherDisplay:10.37,2013-02-01 04:51:00,
2013-01-31 23:56:00,53.9,42.4,30.22,NNW,331,3.8,5.8,65,0.00,CLR,,0.05,WeatherDisplay:10.37,2013-02-01 04:56:00,